Torna al catalogo

STARLINK-34116

AttivoComunicazioniVLEO
NORAD 63890·PAYLOAD·🇺🇸 United States

Lanciato May 10, 2025 da Cape Canaveral Space Force Station

Loading…

Prossimi Passaggi (prossime 24 ore)

TLE

AggiornatoSource: CelesTrak SupGP

Epoca: Sep 15, 2026, 03:43 UTC

1 63890C 25095A   26258.15534722 -.00005906  00000+0 -21397-3 0  2583
2 63890  42.9994 186.3840 0001259 272.4209  35.8333 15.27574329    19

Traccia STARLINK-34116 in tempo reale con AllMySat

Download on the App Store